Location: Cosy Dell
(34.2789°N, 117.4537°W)
Time: 00:49:55
(UTC+00:00)

ATLAS CENTAUR R/B - Pass Details

Date: 14 July 2020
Orbit: 475 x 672 km, 64.7° (Epoch: 13 July)

Event Time Altitude Azimuth Distance (km) Brightness Sun altitude
Rises 04:37:23 0° 321° (NW) 2,529 6.4 -16.9°
Reaches altitude 10° 04:39:38 10° 312° (NW) 1,643 5.1 -17.2°
Maximum altitude 04:42:58 35° 246° (WSW) 792 2.3 -17.7°
Enters shadow 04:44:35 23° 198° (SSW) 1,061 2.5 -18.0°
